Location: Casone le Fosse
(44.6547°N, 12.1103°E)
Time: 12:00:07
(UTC+00:00)

SL-4 R/B - Pass Details

Date: 29 October 2020
Orbit: 427 x 665 km, 51.6° (Epoch: 27 November)

Event Time Altitude Azimuth Distance (km) Brightness Sun altitude
Rises 17:29:50 0° 299° (WNW) 2,442 6.3 -15.7°
Reaches altitude 10° 17:32:01 10° 308° (NW) 1,596 5.1 -16.1°
Maximum altitude 17:35:21 36° 17° (NNE) 762 2.5 -16.7°
Enters shadow 17:36:10 32° 47° (NE) 842 2.5 -16.9°
